owner,sensor,date,latitude,longitude,air_temperature,qcFlag 
WAVCIS,ioos:station:WAVCIS:CSI06:1,2009-03-01T00:00:00Z,28.8667,-90.4833,13.69,11111222 
WAVCIS,ioos:station:WAVCIS:CSI06:1,2009-03-01T01:00:00Z,28.8667,-90.4833,12.55,11111222 
WAVCIS,ioos:station:WAVCIS:CSI06:1,2009-03-01T02:00:00Z,28.8667,-90.4833,11.81,11111222 
WAVCIS,ioos:station:WAVCIS:CSI06:1,2009-03-01T03:00:00Z,28.8667,-90.4833,10.64,11111222 
WAVCIS,ioos:station:WAVCIS:CSI06:1,2009-03-01T04:00:00Z,28.8667,-90.4833,10.28,11111222 
WAVCIS,ioos:station:WAVCIS:CSI06:1,2009-03-01T05:00:00Z,28.8667,-90.4833,9.83,11111222 
WAVCIS,ioos:station:WAVCIS:CSI06:1,2009-03-01T06:00:00Z,28.8667,-90.4833,9.59,11111222 
WAVCIS,ioos:station:WAVCIS:CSI06:1,2009-03-01T07:00:00Z,28.8667,-90.4833,8.47,11111222 
WAVCIS,ioos:station:WAVCIS:CSI06:1,2009-03-01T08:00:00Z,28.8667,-90.4833,7.23,11111222 
WAVCIS,ioos:station:WAVCIS:CSI06:1,2009-03-01T09:00:00Z,28.8667,-90.4833,6.09,11111222 
WAVCIS,ioos:station:WAVCIS:CSI06:1,2009-03-01T10:00:00Z,28.8667,-90.4833,5.356,11111222 
WAVCIS,ioos:station:WAVCIS:CSI06:1,2009-03-01T11:00:00Z,28.8667,-90.4833,4.102,11111222 
WAVCIS,ioos:station:WAVCIS:CSI06:1,2009-03-01T12:00:00Z,28.8667,-90.4833,3.263,11111222 
WAVCIS,ioos:station:WAVCIS:CSI06:1,2009-03-01T13:00:00Z,28.8667,-90.4833,2.907,11111222 
WAVCIS,ioos:station:WAVCIS:CSI06:1,2009-03-01T14:00:00Z,28.8667,-90.4833,2.906,11111222 
WAVCIS,ioos:station:WAVCIS:CSI06:1,2009-03-01T15:00:00Z,28.8667,-90.4833,2.674,11111222 
WAVCIS,ioos:station:WAVCIS:CSI06:1,2009-03-01T16:00:00Z,28.8667,-90.4833,2.725,11111222 
WAVCIS,ioos:station:WAVCIS:CSI06:1,2009-03-01T17:00:00Z,28.8667,-90.4833,3.661,11111222 
WAVCIS,ioos:station:WAVCIS:CSI06:1,2009-03-01T18:00:00Z,28.8667,-90.4833,4.805,11111222 
WAVCIS,ioos:station:WAVCIS:CSI06:1,2009-03-01T19:00:00Z,28.8667,-90.4833,6.17,11111222 
WAVCIS,ioos:station:WAVCIS:CSI06:1,2009-03-01T20:00:00Z,28.8667,-90.4833,7.57,11111222 
WAVCIS,ioos:station:WAVCIS:CSI06:1,2009-03-01T21:00:00Z,28.8667,-90.4833,8.7,11111222 
WAVCIS,ioos:station:WAVCIS:CSI06:1,2009-03-01T22:00:00Z,28.8667,-90.4833,9.43,11111222 
WAVCIS,ioos:station:WAVCIS:CSI06:1,2009-03-01T23:00:00Z,28.8667,-90.4833,10.06,11111222 
WAVCIS,ioos:station:WAVCIS:CSI06:1,2009-03-02T00:00:00Z,28.8667,-90.4833,10.12,11111222 
WAVCIS,ioos:station:WAVCIS:CSI06:1,2009-03-02T01:00:00Z,28.8667,-90.4833,10.18,11111222 
WAVCIS,ioos:station:WAVCIS:CSI06:1,2009-03-02T02:00:00Z,28.8667,-90.4833,10.27,11111222 
WAVCIS,ioos:station:WAVCIS:CSI06:1,2009-03-02T03:00:00Z,28.8667,-90.4833,9.93,11111222 
WAVCIS,ioos:station:WAVCIS:CSI06:1,2009-03-02T04:00:00Z,28.8667,-90.4833,9.43,11111222 
WAVCIS,ioos:station:WAVCIS:CSI06:1,2009-03-02T05:00:00Z,28.8667,-90.4833,8.96,11111222 
WAVCIS,ioos:station:WAVCIS:CSI06:1,2009-03-02T06:00:00Z,28.8667,-90.4833,9.3,11111222 
WAVCIS,ioos:station:WAVCIS:CSI06:1,2009-03-02T07:00:00Z,28.8667,-90.4833,9.07,11111222 
WAVCIS,ioos:station:WAVCIS:CSI06:1,2009-03-02T08:00:00Z,28.8667,-90.4833,8.75,11111222 
WAVCIS,ioos:station:WAVCIS:CSI06:1,2009-03-02T09:00:00Z,28.8667,-90.4833,8.41,11111222 
WAVCIS,ioos:station:WAVCIS:CSI06:1,2009-03-02T10:00:00Z,28.8667,-90.4833,7.47,11111222 
WAVCIS,ioos:station:WAVCIS:CSI06:1,2009-03-02T11:00:00Z,28.8667,-90.4833,6.63,11111222 
WAVCIS,ioos:station:WAVCIS:CSI06:1,2009-03-02T12:00:00Z,28.8667,-90.4833,6.49,11111222 
WAVCIS,ioos:station:WAVCIS:CSI06:1,2009-03-02T13:00:00Z,28.8667,-90.4833,6.07,11111222 
WAVCIS,ioos:station:WAVCIS:CSI06:1,2009-03-02T14:00:00Z,28.8667,-90.4833,6.12,11111222 
WAVCIS,ioos:station:WAVCIS:CSI06:1,2009-03-02T15:00:00Z,28.8667,-90.4833,5.81,11111222 
WAVCIS,ioos:station:WAVCIS:CSI06:1,2009-03-02T16:00:00Z,28.8667,-90.4833,6.06,11111222 
WAVCIS,ioos:station:WAVCIS:CSI06:1,2009-03-02T17:00:00Z,28.8667,-90.4833,6.83,11111222 
WAVCIS,ioos:station:WAVCIS:CSI06:1,2009-03-02T18:00:00Z,28.8667,-90.4833,7.31,11111222 
WAVCIS,ioos:station:WAVCIS:CSI06:1,2009-03-02T19:00:00Z,28.8667,-90.4833,8.07,11111222 
WAVCIS,ioos:station:WAVCIS:CSI06:1,2009-03-02T20:00:00Z,28.8667,-90.4833,8.22,11111222 
WAVCIS,ioos:station:WAVCIS:CSI06:1,2009-03-02T21:00:00Z,28.8667,-90.4833,9.25,11111222 
WAVCIS,ioos:station:WAVCIS:CSI06:1,2009-03-02T22:00:00Z,28.8667,-90.4833,10.04,11111222 
WAVCIS,ioos:station:WAVCIS:CSI06:1,2009-03-02T23:00:00Z,28.8667,-90.4833,10.04,11111222 
WAVCIS,ioos:station:WAVCIS:CSI06:1,2009-03-03T00:00:00Z,28.8667,-90.4833,10.1,11111222 
WAVCIS,ioos:station:WAVCIS:CSI06:1,2009-03-03T01:00:00Z,28.8667,-90.4833,10.51,11111222 
WAVCIS,ioos:station:WAVCIS:CSI06:1,2009-03-03T16:00:00Z,28.8667,-90.4833,10.43,11111222 
WAVCIS,ioos:station:WAVCIS:CSI06:1,2009-03-03T17:00:00Z,28.8667,-90.4833,10.91,11111222 
WAVCIS,ioos:station:WAVCIS:CSI06:1,2009-03-03T18:00:00Z,28.8667,-90.4833,11.17,11111222 
WAVCIS,ioos:station:WAVCIS:CSI06:1,2009-03-03T19:00:00Z,28.8667,-90.4833,11.13,11111222 
WAVCIS,ioos:station:WAVCIS:CSI06:1,2009-03-03T20:00:00Z,28.8667,-90.4833,11.22,11111222 
WAVCIS,ioos:station:WAVCIS:CSI06:1,2009-03-03T21:00:00Z,28.8667,-90.4833,11.42,11111222 
WAVCIS,ioos:station:WAVCIS:CSI06:1,2009-03-03T22:00:00Z,28.8667,-90.4833,11.58,11111222 
WAVCIS,ioos:station:WAVCIS:CSI06:1,2009-03-03T23:00:00Z,28.8667,-90.4833,11.53,11111222 
WAVCIS,ioos:station:WAVCIS:CSI06:1,2009-03-04T00:00:00Z,28.8667,-90.4833,11.42,11111222 
WAVCIS,ioos:station:WAVCIS:CSI06:1,2009-03-04T01:00:00Z,28.8667,-90.4833,11.54,11111222 
WAVCIS,ioos:station:WAVCIS:CSI06:1,2009-03-04T02:00:00Z,28.8667,-90.4833,11.65,11111222 
WAVCIS,ioos:station:WAVCIS:CSI06:1,2009-03-04T03:00:00Z,28.8667,-90.4833,11.77,11111222 
WAVCIS,ioos:station:WAVCIS:CSI06:1,2009-03-04T04:00:00Z,28.8667,-90.4833,12.11,11111222 
WAVCIS,ioos:station:WAVCIS:CSI06:1,2009-03-04T05:00:00Z,28.8667,-90.4833,12.66,11111222 
WAVCIS,ioos:station:WAVCIS:CSI06:1,2009-03-04T06:00:00Z,28.8667,-90.4833,13.56,11111222 
WAVCIS,ioos:station:WAVCIS:CSI06:1,2009-03-04T07:00:00Z,28.8667,-90.4833,13.98,11111222 
WAVCIS,ioos:station:WAVCIS:CSI06:1,2009-03-04T08:00:00Z,28.8667,-90.4833,14.33,11111222 
WAVCIS,ioos:station:WAVCIS:CSI06:1,2009-03-04T09:00:00Z,28.8667,-90.4833,14.64,11111222 
WAVCIS,ioos:station:WAVCIS:CSI06:1,2009-03-04T10:00:00Z,28.8667,-90.4833,15.18,11111222 
WAVCIS,ioos:station:WAVCIS:CSI06:1,2009-03-04T11:00:00Z,28.8667,-90.4833,15.9,11111222 
WAVCIS,ioos:station:WAVCIS:CSI06:1,2009-03-04T12:00:00Z,28.8667,-90.4833,16.93,11111222 
WAVCIS,ioos:station:WAVCIS:CSI06:1,2009-03-04T13:00:00Z,28.8667,-90.4833,17.04,11111222 
WAVCIS,ioos:station:WAVCIS:CSI06:1,2009-03-04T14:00:00Z,28.8667,-90.4833,17.23,11111222 
WAVCIS,ioos:station:WAVCIS:CSI06:1,2009-03-04T15:00:00Z,28.8667,-90.4833,17.27,11111222 
WAVCIS,ioos:station:WAVCIS:CSI06:1,2009-03-04T16:00:00Z,28.8667,-90.4833,17.43,11111222 
WAVCIS,ioos:station:WAVCIS:CSI06:1,2009-03-04T17:00:00Z,28.8667,-90.4833,17.39,11111222 
WAVCIS,ioos:station:WAVCIS:CSI06:1,2009-03-04T18:00:00Z,28.8667,-90.4833,17.43,11111222 
WAVCIS,ioos:station:WAVCIS:CSI06:1,2009-03-04T19:00:00Z,28.8667,-90.4833,17.53,11111222 
WAVCIS,ioos:station:WAVCIS:CSI06:1,2009-03-04T20:00:00Z,28.8667,-90.4833,17.62,11111222 
WAVCIS,ioos:station:WAVCIS:CSI06:1,2009-03-04T21:00:00Z,28.8667,-90.4833,17.59,11111222 
WAVCIS,ioos:station:WAVCIS:CSI06:1,2009-03-04T22:00:00Z,28.8667,-90.4833,17.67,11111222 
WAVCIS,ioos:station:WAVCIS:CSI06:1,2009-03-04T23:00:00Z,28.8667,-90.4833,17.75,11111222 
WAVCIS,ioos:station:WAVCIS:CSI06:1,2009-03-05T00:00:00Z,28.8667,-90.4833,17.63,11111222 
WAVCIS,ioos:station:WAVCIS:CSI06:1,2009-03-05T01:00:00Z,28.8667,-90.4833,17.48,11111222 
WAVCIS,ioos:station:WAVCIS:CSI06:1,2009-03-05T02:00:00Z,28.8667,-90.4833,17.49,11111222 
WAVCIS,ioos:station:WAVCIS:CSI06:1,2009-03-05T03:00:00Z,28.8667,-90.4833,17.51,11111222 
WAVCIS,ioos:station:WAVCIS:CSI06:1,2009-03-05T04:00:00Z,28.8667,-90.4833,17.52,11111222 
WAVCIS,ioos:station:WAVCIS:CSI06:1,2009-03-05T05:00:00Z,28.8667,-90.4833,17.51,11111222 
WAVCIS,ioos:station:WAVCIS:CSI06:1,2009-03-05T06:00:00Z,28.8667,-90.4833,17.5,11111222 
WAVCIS,ioos:station:WAVCIS:CSI06:1,2009-03-05T07:00:00Z,28.8667,-90.4833,17.53,11111222 
WAVCIS,ioos:station:WAVCIS:CSI06:1,2009-03-05T08:00:00Z,28.8667,-90.4833,17.54,11111222 
WAVCIS,ioos:station:WAVCIS:CSI06:1,2009-03-05T09:00:00Z,28.8667,-90.4833,17.63,11111222 
WAVCIS,ioos:station:WAVCIS:CSI06:1,2009-03-05T10:00:00Z,28.8667,-90.4833,17.65,11111222 
WAVCIS,ioos:station:WAVCIS:CSI06:1,2009-03-05T11:00:00Z,28.8667,-90.4833,17.7,11111222 
WAVCIS,ioos:station:WAVCIS:CSI06:1,2009-03-05T12:00:00Z,28.8667,-90.4833,17.72,11111222 
WAVCIS,ioos:station:WAVCIS:CSI06:1,2009-03-05T13:00:00Z,28.8667,-90.4833,17.91,11111222 
WAVCIS,ioos:station:WAVCIS:CSI06:1,2009-03-05T14:00:00Z,28.8667,-90.4833,18.28,11111222 
WAVCIS,ioos:station:WAVCIS:CSI06:1,2009-03-05T15:00:00Z,28.8667,-90.4833,18.33,11111222 
WAVCIS,ioos:station:WAVCIS:CSI06:1,2009-03-05T16:00:00Z,28.8667,-90.4833,18.53,11111222 
WAVCIS,ioos:station:WAVCIS:CSI06:1,2009-03-05T17:00:00Z,28.8667,-90.4833,18.63,11111222 
WAVCIS,ioos:station:WAVCIS:CSI06:1,2009-03-05T18:00:00Z,28.8667,-90.4833,18.69,11111222 
WAVCIS,ioos:station:WAVCIS:CSI06:1,2009-03-05T19:00:00Z,28.8667,-90.4833,18.37,11111222 
WAVCIS,ioos:station:WAVCIS:CSI06:1,2009-03-05T20:00:00Z,28.8667,-90.4833,18.42,11111222 
WAVCIS,ioos:station:WAVCIS:CSI06:1,2009-03-05T21:00:00Z,28.8667,-90.4833,18.4,11111222 
WAVCIS,ioos:station:WAVCIS:CSI06:1,2009-03-05T22:00:00Z,28.8667,-90.4833,18.37,11111222 
WAVCIS,ioos:station:WAVCIS:CSI06:1,2009-03-05T23:00:00Z,28.8667,-90.4833,18.32,11111222 
WAVCIS,ioos:station:WAVCIS:CSI06:1,2009-03-06T00:00:00Z,28.8667,-90.4833,18.23,11111222 
WAVCIS,ioos:station:WAVCIS:CSI06:1,2009-03-06T01:00:00Z,28.8667,-90.4833,18.26,11111222 
WAVCIS,ioos:station:WAVCIS:CSI06:1,2009-03-06T02:00:00Z,28.8667,-90.4833,18.29,11111222 
WAVCIS,ioos:station:WAVCIS:CSI06:1,2009-03-06T03:00:00Z,28.8667,-90.4833,18.34,11111222 
WAVCIS,ioos:station:WAVCIS:CSI06:1,2009-03-06T04:00:00Z,28.8667,-90.4833,18.38,11111222 
WAVCIS,ioos:station:WAVCIS:CSI06:1,2009-03-06T05:00:00Z,28.8667,-90.4833,18.48,11111222 
WAVCIS,ioos:station:WAVCIS:CSI06:1,2009-03-06T06:00:00Z,28.8667,-90.4833,18.5,11111222 
WAVCIS,ioos:station:WAVCIS:CSI06:1,2009-03-06T07:00:00Z,28.8667,-90.4833,18.43,11111222 
WAVCIS,ioos:station:WAVCIS:CSI06:1,2009-03-06T08:00:00Z,28.8667,-90.4833,18.46,11111222 
WAVCIS,ioos:station:WAVCIS:CSI06:1,2009-03-06T09:00:00Z,28.8667,-90.4833,18.31,11111222 
WAVCIS,ioos:station:WAVCIS:CSI06:1,2009-03-06T10:00:00Z,28.8667,-90.4833,18.23,11111222 
WAVCIS,ioos:station:WAVCIS:CSI06:1,2009-03-06T11:00:00Z,28.8667,-90.4833,18.46,11111222 
WAVCIS,ioos:station:WAVCIS:CSI06:1,2009-03-06T12:00:00Z,28.8667,-90.4833,18.55,11111222 
WAVCIS,ioos:station:WAVCIS:CSI06:1,2009-03-06T13:00:00Z,28.8667,-90.4833,18.98,11111222 
WAVCIS,ioos:station:WAVCIS:CSI06:1,2009-03-06T14:00:00Z,28.8667,-90.4833,19.28,11111222 
WAVCIS,ioos:station:WAVCIS:CSI06:1,2009-03-06T15:00:00Z,28.8667,-90.4833,19.28,11111222 
WAVCIS,ioos:station:WAVCIS:CSI06:1,2009-03-06T16:00:00Z,28.8667,-90.4833,19.33,11111222 
WAVCIS,ioos:station:WAVCIS:CSI06:1,2009-03-06T17:00:00Z,28.8667,-90.4833,19.46,11111222 
WAVCIS,ioos:station:WAVCIS:CSI06:1,2009-03-06T18:00:00Z,28.8667,-90.4833,19.57,11111222 
WAVCIS,ioos:station:WAVCIS:CSI06:1,2009-03-06T19:00:00Z,28.8667,-90.4833,19.84,11111222 
WAVCIS,ioos:station:WAVCIS:CSI06:1,2009-03-06T20:00:00Z,28.8667,-90.4833,20.12,11111222 
WAVCIS,ioos:station:WAVCIS:CSI06:1,2009-03-06T21:00:00Z,28.8667,-90.4833,20.06,11111222 
WAVCIS,ioos:station:WAVCIS:CSI06:1,2009-03-06T22:00:00Z,28.8667,-90.4833,20.15,11111222 
WAVCIS,ioos:station:WAVCIS:CSI06:1,2009-03-06T23:00:00Z,28.8667,-90.4833,19.77,11111222 
WAVCIS,ioos:station:WAVCIS:CSI06:1,2009-03-07T00:00:00Z,28.8667,-90.4833,19.83,11111222 
WAVCIS,ioos:station:WAVCIS:CSI06:1,2009-03-07T01:00:00Z,28.8667,-90.4833,19.62,11111222 
WAVCIS,ioos:station:WAVCIS:CSI06:1,2009-03-07T02:00:00Z,28.8667,-90.4833,19.59,11111222 
WAVCIS,ioos:station:WAVCIS:CSI06:1,2009-03-07T03:00:00Z,28.8667,-90.4833,19.61,11111222 
WAVCIS,ioos:station:WAVCIS:CSI06:1,2009-03-07T04:00:00Z,28.8667,-90.4833,19.69,11111222 
WAVCIS,ioos:station:WAVCIS:CSI06:1,2009-03-07T05:00:00Z,28.8667,-90.4833,19.59,11111222 
WAVCIS,ioos:station:WAVCIS:CSI06:1,2009-03-07T06:00:00Z,28.8667,-90.4833,19.56,11111222 
WAVCIS,ioos:station:WAVCIS:CSI06:1,2009-03-07T07:00:00Z,28.8667,-90.4833,19.37,11111222 
WAVCIS,ioos:station:WAVCIS:CSI06:1,2009-03-07T21:00:00Z,28.8667,-90.4833,20.26,11111222 
WAVCIS,ioos:station:WAVCIS:CSI06:1,2009-03-07T22:00:00Z,28.8667,-90.4833,20.41,11111222 
WAVCIS,ioos:station:WAVCIS:CSI06:1,2009-03-07T23:00:00Z,28.8667,-90.4833,20.32,11111222 
WAVCIS,ioos:station:WAVCIS:CSI06:1,2009-03-08T00:00:00Z,28.8667,-90.4833,20.07,11111222 
WAVCIS,ioos:station:WAVCIS:CSI06:1,2009-03-08T01:00:00Z,28.8667,-90.4833,19.8,11111222 
WAVCIS,ioos:station:WAVCIS:CSI06:1,2009-03-08T02:00:00Z,28.8667,-90.4833,19.71,11111222 
WAVCIS,ioos:station:WAVCIS:CSI06:1,2009-03-08T03:00:00Z,28.8667,-90.4833,19.63,11111222 
WAVCIS,ioos:station:WAVCIS:CSI06:1,2009-03-08T04:00:00Z,28.8667,-90.4833,19.72,11111222 
WAVCIS,ioos:station:WAVCIS:CSI06:1,2009-03-08T05:00:00Z,28.8667,-90.4833,19.94,11111222 
WAVCIS,ioos:station:WAVCIS:CSI06:1,2009-03-08T06:00:00Z,28.8667,-90.4833,19.94,11111222 
WAVCIS,ioos:station:WAVCIS:CSI06:1,2009-03-08T07:00:00Z,28.8667,-90.4833,19.68,11111222 
WAVCIS,ioos:station:WAVCIS:CSI06:1,2009-03-08T08:00:00Z,28.8667,-90.4833,19.94,11111222 
WAVCIS,ioos:station:WAVCIS:CSI06:1,2009-03-08T09:00:00Z,28.8667,-90.4833,19.98,11111222 
WAVCIS,ioos:station:WAVCIS:CSI06:1,2009-03-08T10:00:00Z,28.8667,-90.4833,19.92,11111222 
WAVCIS,ioos:station:WAVCIS:CSI06:1,2009-03-08T11:00:00Z,28.8667,-90.4833,20.07,11111222 
WAVCIS,ioos:station:WAVCIS:CSI06:1,2009-03-08T12:00:00Z,28.8667,-90.4833,19.88,11111222 
WAVCIS,ioos:station:WAVCIS:CSI06:1,2009-03-08T13:00:00Z,28.8667,-90.4833,19.94,11111222 
WAVCIS,ioos:station:WAVCIS:CSI06:1,2009-03-08T14:00:00Z,28.8667,-90.4833,20.24,11111222 
WAVCIS,ioos:station:WAVCIS:CSI06:1,2009-03-08T15:00:00Z,28.8667,-90.4833,20.6,11111222 
WAVCIS,ioos:station:WAVCIS:CSI06:1,2009-03-08T16:00:00Z,28.8667,-90.4833,21.14,11111222 
WAVCIS,ioos:station:WAVCIS:CSI06:1,2009-03-08T17:00:00Z,28.8667,-90.4833,21.55,11111222 
WAVCIS,ioos:station:WAVCIS:CSI06:1,2009-03-08T18:00:00Z,28.8667,-90.4833,22.37,11111222 
WAVCIS,ioos:station:WAVCIS:CSI06:1,2009-03-08T19:00:00Z,28.8667,-90.4833,22.36,11111222 
WAVCIS,ioos:station:WAVCIS:CSI06:1,2009-03-08T20:00:00Z,28.8667,-90.4833,22.18,11111222 
WAVCIS,ioos:station:WAVCIS:CSI06:1,2009-03-08T21:00:00Z,28.8667,-90.4833,22.66,11111222 
WAVCIS,ioos:station:WAVCIS:CSI06:1,2009-03-08T22:00:00Z,28.8667,-90.4833,22.0,11111222 
WAVCIS,ioos:station:WAVCIS:CSI06:1,2009-03-08T23:00:00Z,28.8667,-90.4833,21.48,11111222 
WAVCIS,ioos:station:WAVCIS:CSI06:1,2009-03-09T00:00:00Z,28.8667,-90.4833,21.16,11111222 
WAVCIS,ioos:station:WAVCIS:CSI06:1,2009-03-09T01:00:00Z,28.8667,-90.4833,20.99,11111222 
WAVCIS,ioos:station:WAVCIS:CSI06:1,2009-03-09T02:00:00Z,28.8667,-90.4833,20.72,11111222 
WAVCIS,ioos:station:WAVCIS:CSI06:1,2009-03-09T03:00:00Z,28.8667,-90.4833,20.52,11111222 
WAVCIS,ioos:station:WAVCIS:CSI06:1,2009-03-09T04:00:00Z,28.8667,-90.4833,20.35,11111222 
WAVCIS,ioos:station:WAVCIS:CSI06:1,2009-03-09T05:00:00Z,28.8667,-90.4833,20.25,11111222 
WAVCIS,ioos:station:WAVCIS:CSI06:1,2009-03-09T06:00:00Z,28.8667,-90.4833,20.37,11111222 
WAVCIS,ioos:station:WAVCIS:CSI06:1,2009-03-09T07:00:00Z,28.8667,-90.4833,20.27,11111222 
WAVCIS,ioos:station:WAVCIS:CSI06:1,2009-03-09T08:00:00Z,28.8667,-90.4833,20.16,11111222 
WAVCIS,ioos:station:WAVCIS:CSI06:1,2009-03-09T09:00:00Z,28.8667,-90.4833,20.01,11111222 
WAVCIS,ioos:station:WAVCIS:CSI06:1,2009-03-09T10:00:00Z,28.8667,-90.4833,20.47,11111222 
WAVCIS,ioos:station:WAVCIS:CSI06:1,2009-03-09T11:00:00Z,28.8667,-90.4833,20.35,11111222 
WAVCIS,ioos:station:WAVCIS:CSI06:1,2009-03-09T12:00:00Z,28.8667,-90.4833,20.19,11111222 
WAVCIS,ioos:station:WAVCIS:CSI06:1,2009-03-09T13:00:00Z,28.8667,-90.4833,20.01,11111222 
WAVCIS,ioos:station:WAVCIS:CSI06:1,2009-03-09T14:00:00Z,28.8667,-90.4833,20.58,11111222 
WAVCIS,ioos:station:WAVCIS:CSI06:1,2009-03-09T15:00:00Z,28.8667,-90.4833,20.46,11111222 
WAVCIS,ioos:station:WAVCIS:CSI06:1,2009-03-09T16:00:00Z,28.8667,-90.4833,20.17,11111222 
WAVCIS,ioos:station:WAVCIS:CSI06:1,2009-03-09T17:00:00Z,28.8667,-90.4833,20.22,11111222 
WAVCIS,ioos:station:WAVCIS:CSI06:1,2009-03-09T18:00:00Z,28.8667,-90.4833,20.59,11111222 
WAVCIS,ioos:station:WAVCIS:CSI06:1,2009-03-09T19:00:00Z,28.8667,-90.4833,20.56,11111222 
WAVCIS,ioos:station:WAVCIS:CSI06:1,2009-03-09T20:00:00Z,28.8667,-90.4833,20.51,11111222 
WAVCIS,ioos:station:WAVCIS:CSI06:1,2009-03-09T21:00:00Z,28.8667,-90.4833,20.49,11111222 
WAVCIS,ioos:station:WAVCIS:CSI06:1,2009-03-09T22:00:00Z,28.8667,-90.4833,20.58,11111222 
WAVCIS,ioos:station:WAVCIS:CSI06:1,2009-03-09T23:00:00Z,28.8667,-90.4833,20.57,11111222 
WAVCIS,ioos:station:WAVCIS:CSI06:1,2009-03-10T00:00:00Z,28.8667,-90.4833,20.26,11111222 
WAVCIS,ioos:station:WAVCIS:CSI06:1,2009-03-10T01:00:00Z,28.8667,-90.4833,19.95,11111222 
WAVCIS,ioos:station:WAVCIS:CSI06:1,2009-03-10T02:00:00Z,28.8667,-90.4833,19.98,11111222 
WAVCIS,ioos:station:WAVCIS:CSI06:1,2009-03-10T03:00:00Z,28.8667,-90.4833,19.85,11111222 
WAVCIS,ioos:station:WAVCIS:CSI06:1,2009-03-10T04:00:00Z,28.8667,-90.4833,19.82,11111222 
WAVCIS,ioos:station:WAVCIS:CSI06:1,2009-03-10T05:00:00Z,28.8667,-90.4833,19.88,11111222 
WAVCIS,ioos:station:WAVCIS:CSI06:1,2009-03-10T06:00:00Z,28.8667,-90.4833,20.07,11111222 
WAVCIS,ioos:station:WAVCIS:CSI06:1,2009-03-10T07:00:00Z,28.8667,-90.4833,19.97,11111222 
WAVCIS,ioos:station:WAVCIS:CSI06:1,2009-03-10T08:00:00Z,28.8667,-90.4833,19.85,11111222 
WAVCIS,ioos:station:WAVCIS:CSI06:1,2009-03-10T09:00:00Z,28.8667,-90.4833,19.8,11111222 
WAVCIS,ioos:station:WAVCIS:CSI06:1,2009-03-10T10:00:00Z,28.8667,-90.4833,20.0,11111222 
WAVCIS,ioos:station:WAVCIS:CSI06:1,2009-03-10T11:00:00Z,28.8667,-90.4833,19.61,11111222 
WAVCIS,ioos:station:WAVCIS:CSI06:1,2009-03-10T12:00:00Z,28.8667,-90.4833,19.66,11111222 
WAVCIS,ioos:station:WAVCIS:CSI06:1,2009-03-10T13:00:00Z,28.8667,-90.4833,19.84,11111222 
WAVCIS,ioos:station:WAVCIS:CSI06:1,2009-03-10T14:00:00Z,28.8667,-90.4833,20.01,11111222 
WAVCIS,ioos:station:WAVCIS:CSI06:1,2009-03-10T15:00:00Z,28.8667,-90.4833,20.09,11111222 
WAVCIS,ioos:station:WAVCIS:CSI06:1,2009-03-10T16:00:00Z,28.8667,-90.4833,20.19,11111222 
WAVCIS,ioos:station:WAVCIS:CSI06:1,2009-03-10T17:00:00Z,28.8667,-90.4833,20.29,11111222 
WAVCIS,ioos:station:WAVCIS:CSI06:1,2009-03-10T18:00:00Z,28.8667,-90.4833,20.28,11111222 
WAVCIS,ioos:station:WAVCIS:CSI06:1,2009-03-10T19:00:00Z,28.8667,-90.4833,20.33,11111222 
WAVCIS,ioos:station:WAVCIS:CSI06:1,2009-03-10T20:00:00Z,28.8667,-90.4833,20.45,11111222 
WAVCIS,ioos:station:WAVCIS:CSI06:1,2009-03-10T21:00:00Z,28.8667,-90.4833,20.57,11111222 
WAVCIS,ioos:station:WAVCIS:CSI06:1,2009-03-10T22:00:00Z,28.8667,-90.4833,20.69,11111222 
WAVCIS,ioos:station:WAVCIS:CSI06:1,2009-03-10T23:00:00Z,28.8667,-90.4833,20.49,11111222 
WAVCIS,ioos:station:WAVCIS:CSI06:1,2009-03-11T00:00:00Z,28.8667,-90.4833,20.42,11111222 
WAVCIS,ioos:station:WAVCIS:CSI06:1,2009-03-11T01:00:00Z,28.8667,-90.4833,20.47,11111222 
WAVCIS,ioos:station:WAVCIS:CSI06:1,2009-03-11T02:00:00Z,28.8667,-90.4833,20.36,11111222 
WAVCIS,ioos:station:WAVCIS:CSI06:1,2009-03-11T03:00:00Z,28.8667,-90.4833,20.23,11111222 
WAVCIS,ioos:station:WAVCIS:CSI06:1,2009-03-11T04:00:00Z,28.8667,-90.4833,20.1,11111222 
WAVCIS,ioos:station:WAVCIS:CSI06:1,2009-03-11T05:00:00Z,28.8667,-90.4833,20.13,11111222 
WAVCIS,ioos:station:WAVCIS:CSI06:1,2009-03-11T06:00:00Z,28.8667,-90.4833,19.77,11111222 
WAVCIS,ioos:station:WAVCIS:CSI06:1,2009-03-11T07:00:00Z,28.8667,-90.4833,20.07,11111222 
WAVCIS,ioos:station:WAVCIS:CSI06:1,2009-03-11T08:00:00Z,28.8667,-90.4833,19.98,11111222 
WAVCIS,ioos:station:WAVCIS:CSI06:1,2009-03-11T09:00:00Z,28.8667,-90.4833,19.86,11111222 
WAVCIS,ioos:station:WAVCIS:CSI06:1,2009-03-11T10:00:00Z,28.8667,-90.4833,19.86,11111222 
WAVCIS,ioos:station:WAVCIS:CSI06:1,2009-03-11T11:00:00Z,28.8667,-90.4833,19.99,11111222 
WAVCIS,ioos:station:WAVCIS:CSI06:1,2009-03-11T12:00:00Z,28.8667,-90.4833,19.88,11111222 
WAVCIS,ioos:station:WAVCIS:CSI06:1,2009-03-11T13:00:00Z,28.8667,-90.4833,20.14,11111222 
WAVCIS,ioos:station:WAVCIS:CSI06:1,2009-03-11T14:00:00Z,28.8667,-90.4833,20.29,11111222 
WAVCIS,ioos:station:WAVCIS:CSI06:1,2009-03-11T15:00:00Z,28.8667,-90.4833,20.51,11111222 
WAVCIS,ioos:station:WAVCIS:CSI06:1,2009-03-11T16:00:00Z,28.8667,-90.4833,20.83,11111222 
WAVCIS,ioos:station:WAVCIS:CSI06:1,2009-03-11T17:00:00Z,28.8667,-90.4833,20.91,11111222 
WAVCIS,ioos:station:WAVCIS:CSI06:1,2009-03-11T18:00:00Z,28.8667,-90.4833,20.79,11111222 
WAVCIS,ioos:station:WAVCIS:CSI06:1,2009-03-11T19:00:00Z,28.8667,-90.4833,20.94,11111222 
WAVCIS,ioos:station:WAVCIS:CSI06:1,2009-03-11T20:00:00Z,28.8667,-90.4833,20.78,11111222 
WAVCIS,ioos:station:WAVCIS:CSI06:1,2009-03-11T21:00:00Z,28.8667,-90.4833,20.76,11111222 
WAVCIS,ioos:station:WAVCIS:CSI06:1,2009-03-11T22:00:00Z,28.8667,-90.4833,20.87,11111222 
WAVCIS,ioos:station:WAVCIS:CSI06:1,2009-03-11T23:00:00Z,28.8667,-90.4833,20.79,11111222 
WAVCIS,ioos:station:WAVCIS:CSI06:1,2009-03-12T00:00:00Z,28.8667,-90.4833,20.47,11111222 
WAVCIS,ioos:station:WAVCIS:CSI06:1,2009-03-12T01:00:00Z,28.8667,-90.4833,20.15,11111222 
WAVCIS,ioos:station:WAVCIS:CSI06:1,2009-03-12T02:00:00Z,28.8667,-90.4833,20.03,11111222 
WAVCIS,ioos:station:WAVCIS:CSI06:1,2009-03-12T03:00:00Z,28.8667,-90.4833,19.97,11111222 
WAVCIS,ioos:station:WAVCIS:CSI06:1,2009-03-12T04:00:00Z,28.8667,-90.4833,19.95,11111222 
WAVCIS,ioos:station:WAVCIS:CSI06:1,2009-03-12T05:00:00Z,28.8667,-90.4833,19.89,11111222 
WAVCIS,ioos:station:WAVCIS:CSI06:1,2009-03-12T06:00:00Z,28.8667,-90.4833,19.69,11111222 
WAVCIS,ioos:station:WAVCIS:CSI06:1,2009-03-12T07:00:00Z,28.8667,-90.4833,19.68,11111222 
WAVCIS,ioos:station:WAVCIS:CSI06:1,2009-03-12T08:00:00Z,28.8667,-90.4833,19.43,11111222 
WAVCIS,ioos:station:WAVCIS:CSI06:1,2009-03-12T09:00:00Z,28.8667,-90.4833,19.33,11111222 
WAVCIS,ioos:station:WAVCIS:CSI06:1,2009-03-12T10:00:00Z,28.8667,-90.4833,19.4,11111222 
WAVCIS,ioos:station:WAVCIS:CSI06:1,2009-03-12T11:00:00Z,28.8667,-90.4833,19.32,11111222 
WAVCIS,ioos:station:WAVCIS:CSI06:1,2009-03-12T12:00:00Z,28.8667,-90.4833,19.31,11111222 
WAVCIS,ioos:station:WAVCIS:CSI06:1,2009-03-12T13:00:00Z,28.8667,-90.4833,19.0,11111222 
WAVCIS,ioos:station:WAVCIS:CSI06:1,2009-03-12T14:00:00Z,28.8667,-90.4833,18.97,11111222 
WAVCIS,ioos:station:WAVCIS:CSI06:1,2009-03-12T15:00:00Z,28.8667,-90.4833,19.01,11111222 
WAVCIS,ioos:station:WAVCIS:CSI06:1,2009-03-12T16:00:00Z,28.8667,-90.4833,18.95,11111222 
WAVCIS,ioos:station:WAVCIS:CSI06:1,2009-03-12T17:00:00Z,28.8667,-90.4833,18.96,11111222 
WAVCIS,ioos:station:WAVCIS:CSI06:1,2009-03-12T18:00:00Z,28.8667,-90.4833,19.27,11111222 
WAVCIS,ioos:station:WAVCIS:CSI06:1,2009-03-12T19:00:00Z,28.8667,-90.4833,19.25,11111222 
WAVCIS,ioos:station:WAVCIS:CSI06:1,2009-03-12T20:00:00Z,28.8667,-90.4833,19.84,11111222 
WAVCIS,ioos:station:WAVCIS:CSI06:1,2009-03-12T21:00:00Z,28.8667,-90.4833,20.12,11111222 
WAVCIS,ioos:station:WAVCIS:CSI06:1,2009-03-12T22:00:00Z,28.8667,-90.4833,20.02,11111222 
WAVCIS,ioos:station:WAVCIS:CSI06:1,2009-03-12T23:00:00Z,28.8667,-90.4833,20.2,11111222 
WAVCIS,ioos:station:WAVCIS:CSI06:1,2009-03-13T00:00:00Z,28.8667,-90.4833,19.91,11111222 
WAVCIS,ioos:station:WAVCIS:CSI06:1,2009-03-13T01:00:00Z,28.8667,-90.4833,19.82,11111222 
WAVCIS,ioos:station:WAVCIS:CSI06:1,2009-03-13T02:00:00Z,28.8667,-90.4833,19.74,11111222 
WAVCIS,ioos:station:WAVCIS:CSI06:1,2009-03-13T03:00:00Z,28.8667,-90.4833,19.69,11111222 
WAVCIS,ioos:station:WAVCIS:CSI06:1,2009-03-13T04:00:00Z,28.8667,-90.4833,19.66,11111222 
WAVCIS,ioos:station:WAVCIS:CSI06:1,2009-03-13T05:00:00Z,28.8667,-90.4833,19.67,11111222 
WAVCIS,ioos:station:WAVCIS:CSI06:1,2009-03-13T06:00:00Z,28.8667,-90.4833,19.59,11111222 
WAVCIS,ioos:station:WAVCIS:CSI06:1,2009-03-13T07:00:00Z,28.8667,-90.4833,19.67,11111222 